CZ-4C DEB, 43281

Orbit data source: Space-Track

CZ-4C DEB, 43281 is space debris in LEO originally from a launch on Tue, 10 Apr 2018 UTC launched from the Jiuquan Satellite Launch Center, China (JSC). Debris objects in space refer to the collection of defunct objects orbiting the Earth. Examples of debris include non-operational satellites, rocket bodies, and fragments generated from explosions, collisions, or faulty payload assembly.

Loading next visibility...
Identifier
43281, 2018-034G
Orbit
LEO
Last TLE update
16 hours ago
Origin
Manufacturer
Unknown
Mission
Spacecraft
Bus & Motor
Unknown
Mass
Unknown
Launch date (UTC)
2018-04-10 (7 years ago)
Launch vehicle
Unknown
Launch site
Jiuquan Satellite Launch Center, China (JSC)
Object type
Payload
Rocket body
Debris
Shape & HBR
Unknown
Radar Cross Section
Large (>1 m²)

Expand to show TLE details & history

TLE from 16 hours ago
0 CZ-4C DEB
1 43281U 18034G   25128.56576408  .00000074  00000-0  23714-3 0  9994
2 43281  63.3997  63.1505 0236260   6.6719 353.7359 13.44634784283265
Epoch: 2025-05-08T13:34Z
Definitive object data (Epoch: 2025-05-08T13:34:42.016Z)
Latitude
-0.00002°
Longitude
-7.159°
Altitude
918.427 km
Speed
7.479 km/s
True Right ascension
04h 12m 36s
True Declination
0° 00' 00"
Sunlit
Object was in daylight at TLE epoch
Visualization TLE readout
Latitude
7.04709°
Longitude
-5.35085°
Altitude
916.726 km
Speed
7.481 km/s
Apparent Right ascension
03h 19m 40s
Apparent Declination
-15° 26' 30"
Sunlit
Object is in daylight
Visualization observer readout
Local Sidereal Time
13:49:27
Azimuth
314.791° NW
Elevation
-58.607°
Doppler factor
1
Orbital elements
Apogee altitude
1,267.356 km
Perigee altitude
914.43 km
Semi-major axis
7,469.03 km
Eccentricity
0.023626
Inclination
63.3997°
RAAN
63.1505°
Arg. of periapsis
6.6719°
True anomaly
353.43158°
Mean anomaly
353.7359°
Eccentric anomaly
353.58465°
Mean motion
3.36238 °/min
BSTAR
0.00023714
Orbital period
107.07 mins
Loading maneuver chart data...
Loading SW <> Apogee altitude chart data...
Loading historical data...
Loading historical data...
Loading historical data...
Loading historical data...
Loading historical data...
Loading historical data...
Loading historical data...

CZ-4C DEB Visibility forecast

Observer location: undefined°, undefined°

Span
Click to sort rows by Start time (UTC) header in descending order
Start Az.
Max El. time (UTC)
Max El. Az.
Max El.
End time (UTC)
End Az.
14 mins2025-05-09 06:10:45.250Z325.893° NNW2025-05-09 06:17:45.250Z142.735° SSE44.988°2025-05-09 06:24:45.250Z148.115° SSE
7 mins2025-05-09 08:04:45.250Z278.86° WNW2025-05-09 08:07:45.250Z251.136° W17.414°2025-05-09 08:11:45.250Z217.678° SW
8 mins2025-05-09 20:02:45.250Z152.561° SSE2025-05-09 20:06:45.250Z103.648° ESE21.493°2025-05-09 20:10:45.250Z61.744° ENE
10 mins2025-05-09 21:51:45.250Z233.415° WSW2025-05-09 21:56:45.250Z325.304° NNW39.987°2025-05-09 22:01:45.250Z25.508° NE
5 mins2025-05-09 23:46:45.250Z314.469° NW2025-05-09 23:48:45.250Z335.594° NNW14.944°2025-05-09 23:51:45.250Z4.11° NNE
7 mins2025-05-10 03:33:45.250Z3.365° NNE2025-05-10 03:36:45.250Z32.321° NE16.566°2025-05-10 03:40:45.250Z66.661° ENE
13 mins2025-05-10 05:22:45.250Z335.212° NNW2025-05-10 05:28:45.250Z54.574° ENE40.514°2025-05-10 05:35:45.250Z129.437° SE
|